Flight Track Log - Related Links

Times and Time Zones

All times are in EDT time to prevent confusion due to time zone crossing. See the FLG4081 flight status page for this flight to view local times or setup timezone preferences in your user account.

Time Position Orientation Groundspeed Altitude Reporting Facility
EDT Latitude Longitude Course Direction KTS MPH feet Rate Location/Type
Tue 10:29:12 PM 42.2058 -83.3583 270° West 140 161 1,600  Level Cleveland Center
Tue 10:29:49 PM 42.2131 -83.3981 284° West 196 226 2,900 2,103 Climbing Cleveland Center
Tue 10:30:49 PM 42.2172 -83.4822 274° West 257 296 5,000 2,727 Climbing Cleveland Center
Tue 10:31:50 PM 42.2231 -83.5806 275° West 269 310 8,400 2,459 Climbing Cleveland Center
Tue 10:32:00 PM 42.2457 -84.0807 275° West  Level FlightAware Approximate
Tue 10:32:51 PM 42.2306 -83.6906 275° West 316 364 10,000  Level Cleveland Center
Tue 10:33:00 PM 42.2501 -84.2644 270° West  Level FlightAware Approximate
Tue 10:34:00 PM 42.2501 -84.4483 270° West  Level FlightAware Approximate
Tue 10:34:00 PM 42.2397 -83.9016 273° West  Level FlightAware Approximate
Tue 10:36:45 PM 42.2650 -84.2075 270° West 366 421 9,900  Level Chicago Center
Tue 10:37:46 PM 42.2628 -84.3450 269° West 367 422 9,900  Level Chicago Center
Tue 10:38:47 PM 42.2608 -84.4822 269° West 366 421 9,900  Level Chicago Center
Tue 10:39:48 PM 42.2572 -84.6189 268° West 366 421 9,900  Level Chicago Center
Tue 10:40:49 PM 42.2547 -84.7542 269° West 364 419 9,900  Level Chicago Center
Tue 10:41:00 PM 42.2333 -85.1876 270° West  Level FlightAware Approximate
Tue 10:41:50 PM 42.2528 -84.8842 269° West 349 402 9,900  Level Chicago Center
Tue 10:42:00 PM 42.2333 -85.3715 270° West  Level FlightAware Approximate
Tue 10:42:51 PM 42.2625 -84.9831 278° West 288 331 8,300  Level Chicago Center
Tue 10:43:52 PM 42.2814 -85.0781 285° West 265 305 6,600 -1,721 Descending Chicago Center
Tue 10:44:53 PM 42.3031 -85.1964 284° West 269 310 4,800 -1,525 Descending Chicago Center
Tue 10:45:54 PM 42.3231 -85.2931 286° West 270 311 3,500 -1,180 Descending Chicago Center
Tue 10:46:55 PM 42.3272 -85.3806 274° West 250 288 2,400 -1,082 Descending Chicago Center

Login

Don't have an account? Register now (free) for customized features, flight alerts, and more!